This is the latest recevied weather packets stored in our database for station/object KA9CBS. If no packets are shown the sender has not sent any weather packets the latest 10 day(s).
| Time | Temp. | Humidity | Pressure | Rain* | Wind** | Luminosity | Snow |
|---|---|---|---|---|---|---|---|
| 1777489721 | 17.22° C | 59% | 1017.8 hPa | 0 mm | - | 827 W/m² | - |
| 1777489417 | 17.22° C | 60% | 1017.7 hPa | 0 mm | - | 839 W/m² | - |
| 1777489114 | 17.22° C | 58% | 1017.7 hPa | 0 mm | - | 862 W/m² | - |
| 1777488811 | 17.22° C | 62% | 1017.4 hPa | 0 mm | - | 853 W/m² | - |
| 1777488509 | 16.67° C | 60% | 1017.6 hPa | 0 mm | - | 777 W/m² | - |
| 1777488207 | 17.22° C | 65% | 1017.5 hPa | 0 mm | - | 864 W/m² | - |
| 1777487905 | 16.67° C | 61% | 1017.5 hPa | 0 mm | - | 718 W/m² | - |
| 1777487602 | 16.67° C | 65% | 1017.5 hPa | 0 mm | - | 865 W/m² | - |
| 1777487299 | 16.67° C | 64% | 1017.5 hPa | 0 mm | - | 159 W/m² | - |
| 1777486996 | 16.67° C | 64% | 1017.3 hPa | 0 mm | - | 861 W/m² | - |
| 1777486692 | 16.67° C | 64% | 1017.4 hPa | 0 mm | - | 316 W/m² | - |
| 1777486390 | 16.67° C | 63% | 1017.3 hPa | 0 mm | - | 776 W/m² | - |
| 1777486087 | 16.67° C | 64% | 1017.6 hPa | 0 mm | - | 720 W/m² | - |
| 1777485784 | 16.67° C | 65% | 1017.5 hPa | 0 mm | - | 223 W/m² | - |
| 1777485479 | 16.67° C | 63% | 1017.4 hPa | 0 mm | - | 712 W/m² | - |
| 1777485176 | 16.67° C | 65% | 1017.4 hPa | 0 mm | - | 746 W/m² | - |
| 1777484872 | 16.67° C | 64% | 1017.5 hPa | 0 mm | - | 716 W/m² | - |
| 1777484569 | 16.67° C | 63% | 1017.6 hPa | 0 mm | - | 790 W/m² | - |
| 1777484266 | 16.67° C | 64% | 1017.6 hPa | 0 mm | - | 725 W/m² | - |
| 1777483962 | 16.67° C | 63% | 1017.7 hPa | 0 mm | - | 792 W/m² | - |
| 1777483659 | 16.67° C | 60% | 1017.6 hPa | 0 mm | - | 742 W/m² | - |
| 1777483354 | 16.67° C | 67% | 1017.7 hPa | 0 mm | - | 738 W/m² | - |
| 1777483049 | 16.67° C | 65% | 1017.6 hPa | 0 mm | - | 668 W/m² | - |
| 1777482746 | 16.67° C | 66% | 1017.6 hPa | 0 mm | - | 741 W/m² | - |
| 1777482442 | 16.11° C | 72% | 1017.7 hPa | 0 mm | - | 750 W/m² | - |
* Rain latest hour (hover to see other rain measurements)
** Current wind speed in m/s (hover to see current wind gust speed)